GFSSGP_700_spd_336.txt.gz
Wind_Speed
8 6 6 5 5 4 6 6 7 4 4 5 4 4 6 7 6 3 5 9 11 11 10 9 7 5 5 6 6 7 8 8 8 8 7 8 9 10 10 11 12 12 12 12 13 14 14 16 17
9 8 7 5 5 5 5 8 4 2 3 5 6 6 5 5 4 5 7 9 8 9 8 7 6 6 5 6 7 8 8 8 8 8 9 10 11 12 12 12 13 14 15 15 15 16 16 16 17
11 10 8 5 6 8 6 8 4 2 5 6 5 5 5 3 4 4 7 5 9 8 8 7 6 6 6 7 7 8 9 9 10 10 11 12 13 14 14 15 16 16 17 17 17 18 19 18 19
10 11 10 10 7 10 7 8 6 4 5 6 6 5 5 5 5 6 5 7 9 9 9 8 7 7 8 8 9 9 10 10 11 12 12 13 14 15 15 16 17 18 19 19 20 20 20 21 22
11 11 13 9 10 12 10 8 7 5 6 6 6 5 5 5 5 4 5 7 8 8 7 8 9 10 10 9 10 10 11 12 13 13 13 14 15 15 16 18 19 20 21 22 22 23 23 23 23
12 13 8 15 9 13 11 10 8 6 6 7 7 6 5 6 4 6 7 8 8 8 8 7 8 9 9 10 10 11 11 12 13 14 14 15 16 17 18 20 20 21 22 23 24 25 25 26 26
14 14 13 11 12 12 9 10 9 8 7 8 7 8 7 4 7 7 7 8 8 8 8 8 9 9 10 10 11 11 12 13 14 14 15 16 16 18 19 20 22 23 23 23 24 25 26 26 27
16 16 15 13 12 15 12 12 11 10 10 8 7 4 7 8 8 8 7 7 8 8 8 9 10 10 11 12 12 13 14 15 15 15 16 17 17 19 21 23 23 22 22 25 25 25 26 27 28
18 19 19 15 13 14 13 12 12 12 10 10 9 11 11 10 9 7 7 8 8 8 9 9 10 11 11 12 13 14 15 15 15 16 17 17 19 21 24 23 23 23 24 25 26 27 30 30 29
21 24 18 17 15 13 14 14 14 14 13 11 12 12 11 9 9 7 7 8 8 8 9 10 11 12 12 13 14 15 15 15 15 16 17 20 21 23 23 24 24 24 25 27 28 30 30 29 26
24 27 20 18 16 17 16 17 16 15 12 11 13 13 11 9 8 8 8 8 8 8 10 11 12 12 13 14 15 15 15 15 15 16 18 21 23 22 22 24 25 26 28 30 31 31 29 27 25
26 25 22 22 20 20 19 19 18 17 10 16 14 12 10 8 8 10 10 8 8 10 11 12 12 13 13 14 16 15 14 14 14 17 19 21 21 21 22 24 27 28 30 31 31 30 28 25 24
26 24 24 22 23 23 23 20 21 14 15 15 11 8 8 8 9 9 9 8 10 13 14 14 14 13 14 15 16 14 13 13 15 17 20 20 20 21 22 25 28 29 30 30 29 27 24 23 21
26 25 26 26 23 24 23 21 22 11 13 11 11 10 8 7 10 8 8 11 13 15 16 16 16 14 14 15 15 13 13 14 14 17 19 19 19 21 23 25 27 28 29 29 27 23 22 21 17
25 25 23 23 24 26 24 25 22 18 15 14 10 8 9 9 8 9 11 12 12 15 16 16 15 13 14 15 13 12 13 15 15 18 18 18 19 21 23 25 27 27 29 28 24 23 21 18 13
20 25 26 24 23 24 21 26 16 12 14 14 13 13 11 10 8 13 12 12 13 14 15 14 13 12 13 12 11 12 13 14 16 17 18 18 19 21 23 25 25 26 27 26 22 23 21 17 11
21 17 21 23 23 20 20 18 14 18 13 14 16 15 15 12 12 13 13 13 13 14 13 12 11 10 11 10 10 12 13 14 16 17 18 19 20 21 22 24 24 26 26 23 22 24 19 13 10
25 25 25 18 14 17 22 24 18 12 16 17 17 16 17 17 16 15 14 14 13 14 12 11 10 10 9 9 10 12 13 14 15 16 18 19 19 20 21 22 25 25 24 20 22 20 15 12 10
22 14 20 21 20 23 26 26 20 20 24 23 21 22 22 21 18 16 15 14 13 12 12 10 9 8 8 9 10 11 12 14 14 15 17 18 18 19 20 22 25 23 20 16 20 17 15 13 10
31 22 17 16 17 19 22 28 25 22 24 25 23 22 20 20 19 18 17 15 14 12 11 10 8 7 7 9 9 10 12 14 14 14 16 17 17 18 19 21 25 21 16 14 18 16 15 13 9
30 31 27 19 12 15 21 29 26 23 22 24 23 21 18 17 16 16 16 15 14 12 11 10 8 7 7 8 9 9 11 13 14 14 15 16 16 16 16 20 22 18 14 13 15 14 13 13 9
27 26 24 25 18 9 11 8 15 11 15 22 22 20 17 15 15 15 15 15 14 12 11 10 8 7 7 7 8 10 11 12 13 12 13 15 15 14 14 18 21 18 14 10 12 13 10 10 8
27 22 20 21 23 23 23 10 13 21 22 17 21 21 18 16 15 15 16 15 14 12 12 11 9 7 6 7 8 10 10 11 12 11 12 13 14 12 12 16 20 17 14 7 7 10 7 7 9
26 21 13 12 12 7 23 18 12 23 22 17 22 21 19 16 15 16 16 15 14 13 13 12 9 7 7 7 8 9 10 11 12 12 11 12 13 11 11 14 17 15 14 10 2 2 3 1 6
21 20 3 1 2 6 11 18 31 14 18 20 20 21 20 17 15 14 15 15 15 15 15 14 11 8 7 6 7 9 9 10 11 11 11 11 12 11 10 12 15 14 12 11 4 2 1 1 6
34 31 11 8 5 3 12 13 14 18 22 19 21 21 19 17 15 15 17 19 19 19 18 15 13 10 7 6 7 7 8 9 10 10 10 9 9 9 8 10 13 13 10 10 5 2 2 3 10
35 35 30 0 2 1 8 13 22 17 20 26 23 20 18 18 16 16 15 17 20 20 19 17 15 12 8 7 7 6 7 9 10 10 10 9 8 8 7 7 10 12 8 7 8 4 2 4 17
31 35 19 20 4 4 6 9 13 17 23 23 23 23 23 21 18 16 15 16 19 20 21 19 16 14 11 9 7 7 7 8 9 10 11 10 8 7 5 4 6 8 6 4 4 3 9 16 21
38 28 23 16 15 5 2 9 17 18 12 19 20 20 19 18 16 15 17 18 19 21 21 19 18 16 14 12 10 9 9 10 9 11 11 11 9 7 6 4 5 7 6 1 1 6 15 13 12
43 38 43 21 12 21 3 14 4 15 23 21 22 19 17 16 15 16 17 17 19 19 20 20 20 19 18 14 13 11 11 11 10 10 10 10 9 6 6 3 3 5 7 4 8 10 14 11 9

GFSSGP_700_spd_339.txt.gz
Wind_Speed
7 6 5 5 4 5 6 7 6 6 4 4 4 3 5 5 4 3 5 8 9 9 9 8 6 5 4 4 4 4 5 5 5 6 6 7 8 9 9 10 10 11 12 12 12 13 13 13 14
7 7 6 5 5 6 6 8 7 6 3 3 3 3 3 2 3 5 5 7 7 8 8 8 7 6 4 4 5 5 6 7 7 7 8 8 9 10 11 11 12 13 13 13 14 15 16 16 15
9 9 8 5 8 7 4 10 8 5 2 3 2 2 1 0 2 3 5 3 7 7 6 6 5 5 6 7 8 8 8 9 9 9 9 10 10 11 12 12 13 13 15 15 16 17 18 18 17
11 11 11 11 7 9 7 10 7 5 3 3 3 2 2 2 3 4 4 5 8 8 8 6 6 6 7 8 9 9 9 10 10 10 10 10 11 12 12 13 14 15 16 17 17 18 18 18 19
11 12 15 10 10 10 11 8 8 6 4 3 3 3 3 3 4 3 5 6 8 8 7 7 6 7 7 7 8 10 10 10 11 10 11 11 12 12 14 15 16 17 17 18 19 20 20 20 20
13 13 10 13 11 9 13 10 9 8 6 4 4 4 3 4 3 5 6 7 7 8 7 7 7 7 7 8 8 9 10 11 11 12 12 12 13 13 14 16 17 18 20 20 20 20 20 21 22
14 14 14 13 7 10 12 11 11 10 8 6 6 6 5 2 4 6 6 6 7 7 7 7 7 8 8 9 9 10 11 11 12 13 13 14 14 15 16 18 19 18 19 20 22 23 22 23 24
15 16 16 14 12 11 13 11 10 12 11 8 7 2 3 6 6 7 7 6 7 7 7 7 7 7 8 8 10 11 12 13 13 13 14 14 15 17 18 18 18 19 21 22 24 24 25 27 27
16 19 19 17 12 13 14 15 14 13 12 9 8 9 9 9 8 8 8 7 7 7 8 8 8 9 9 9 11 13 14 13 12 13 13 14 16 18 19 18 19 21 22 25 26 28 29 31 30
20 23 18 17 14 14 14 15 15 15 14 12 11 11 11 9 8 8 8 8 7 7 9 9 9 9 9 10 12 14 14 13 13 13 14 16 18 19 18 19 20 22 25 27 29 30 31 31 29
24 26 20 18 15 17 16 16 17 16 15 12 14 13 10 9 9 9 9 8 8 8 9 10 10 10 10 11 12 14 14 13 12 14 15 18 19 17 18 19 21 25 27 29 31 31 32 30 27
26 25 23 22 20 21 20 18 20 19 12 16 16 14 12 11 10 11 10 9 8 10 10 11 12 12 11 12 13 14 14 12 13 15 17 19 18 17 18 21 23 26 28 29 30 30 30 25 24
27 25 24 22 23 23 24 21 22 18 16 17 15 12 11 12 12 13 11 9 9 10 11 12 13 13 13 12 12 13 12 12 14 15 18 19 18 18 19 22 25 27 29 30 30 29 27 26 23
25 26 26 27 24 25 24 23 24 13 15 13 12 11 13 13 15 13 10 11 10 11 11 13 12 12 12 12 12 12 11 12 14 16 18 18 18 19 21 23 26 29 30 30 29 26 27 26 21
27 26 25 25 22 27 26 28 25 20 18 15 15 12 12 12 11 12 11 9 12 11 11 13 12 11 10 10 11 10 11 13 13 16 18 18 18 20 21 23 26 29 30 29 27 28 29 23 17
18 24 27 25 24 25 23 30 18 16 14 16 18 15 13 13 12 11 11 12 12 12 11 11 12 11 9 9 9 9 12 13 13 16 17 18 19 20 21 23 26 29 29 26 26 28 23 17 14
21 16 18 23 27 23 22 24 17 16 20 15 17 18 16 15 14 12 12 12 12 12 11 10 10 10 9 8 8 10 11 12 14 15 16 18 18 19 20 22 26 27 26 22 26 23 19 17 15
27 23 27 23 15 16 23 28 22 19 16 21 19 19 18 18 17 15 13 13 12 12 11 10 9 8 8 7 8 10 11 11 13 14 15 16 17 18 18 21 25 25 22 22 23 20 19 19 18
28 20 23 22 19 23 26 29 20 20 25 21 19 21 21 20 20 18 15 16 14 12 12 10 9 7 6 7 8 9 9 10 12 13 14 16 17 17 17 21 24 22 19 19 19 18 19 17 15
31 29 24 15 16 20 24 32 28 25 27 26 25 25 24 23 22 20 19 18 16 14 12 10 9 7 6 7 8 8 8 10 12 13 14 15 16 16 16 20 22 20 18 18 16 15 18 16 14
31 33 29 24 21 22 25 32 30 26 26 27 26 25 23 21 20 20 20 19 18 15 13 11 9 7 6 7 7 7 8 9 11 12 12 13 14 14 14 18 20 19 18 14 13 13 15 15 13
31 28 26 26 24 13 12 9 17 11 14 22 25 24 23 22 19 18 17 18 17 16 14 11 10 8 7 7 6 7 8 8 10 11 12 12 13 12 13 16 18 18 16 12 10 11 12 14 13
31 25 19 21 24 26 29 13 21 22 23 17 19 23 23 21 19 17 17 17 17 16 15 13 12 9 7 6 6 7 7 7 8 9 11 10 11 11 11 13 16 17 15 12 6 8 8 11 11
15 20 9 10 11 8 23 20 14 26 26 18 24 22 22 22 20 18 16 16 16 17 15 14 13 10 8 6 6 6 6 7 8 8 9 9 10 9 9 11 14 14 14 11 5 2 3 4 8
23 16 2 1 2 6 10 17 35 15 21 19 22 21 23 22 20 18 16 17 17 17 17 16 14 12 9 7 6 6 5 6 6 7 8 9 9 9 8 9 12 12 12 10 6 1 1 4 8
33 28 11 7 4 3 13 14 18 11 25 19 19 24 24 24 22 18 17 17 18 18 18 17 16 14 11 8 6 5 5 5 6 7 8 8 8 8 8 8 10 10 10 10 8 4 2 8 11
30 37 32 3 2 1 9 16 30 21 18 19 24 22 23 22 21 19 17 17 18 19 19 19 18 15 12 9 7 6 5 5 5 6 6 7 7 7 7 7 7 8 7 9 8 6 2 12 13
33 33 18 21 4 4 6 11 15 13 24 27 27 24 21 22 21 18 17 16 17 20 21 21 20 17 14 12 9 7 7 7 6 6 6 6 7 6 6 7 6 6 5 5 5 6 5 16 14
40 28 22 18 19 5 1 11 20 19 14 17 22 23 25 22 20 18 18 17 18 19 20 21 20 18 16 14 11 9 8 8 7 8 7 7 7 6 7 7 7 7 5 1 0 4 11 14 15
42 37 44 19 13 23 10 18 11 13 22 19 20 21 21 23 21 19 18 17 17 17 19 20 21 20 19 16 13 11 10 10 10 10 8 9 7 7 7 7 7 7 8 4 5 7 10 10 7

GFSSGP_700_spd_342.txt.gz
Wind_Speed
8 7 5 5 3 4 6 6 8 7 4 5 5 4 4 6 5 3 4 6 7 7 8 7 6 5 4 4 3 4 5 6 6 6 6 6 6 7 9 9 10 10 12 12 12 13 13 13 14
7 6 5 5 3 6 6 11 10 8 6 4 4 4 3 4 3 3 4 6 5 8 7 7 5 4 4 4 4 5 6 7 7 7 7 8 8 9 9 10 12 12 12 13 14 15 16 16 16
8 7 6 5 8 6 4 11 10 8 6 4 3 2 2 2 1 2 4 3 5 6 6 6 6 5 5 5 5 6 6 7 8 8 8 8 9 10 10 11 11 12 12 13 14 15 16 17 17
10 10 9 10 9 8 6 11 10 8 5 3 3 2 2 3 4 3 3 4 6 7 7 5 5 5 5 5 6 6 7 8 7 8 9 9 10 10 11 11 12 13 14 15 16 17 18 18 19
10 11 13 11 12 9 10 11 11 8 6 4 3 4 4 4 3 3 3 5 6 7 6 6 5 4 4 5 6 7 8 8 9 9 10 10 11 12 12 13 14 15 16 18 19 19 20 20 21
12 12 8 13 13 8 12 14 10 9 8 7 5 5 5 5 4 3 5 5 6 7 7 6 5 4 5 6 7 8 9 10 10 10 10 10 11 12 13 14 15 16 17 17 18 19 21 22 23
15 14 12 15 11 10 10 14 12 11 10 9 7 6 6 6 4 5 5 5 5 6 6 6 6 6 6 6 7 8 10 11 12 11 10 11 11 12 14 16 16 15 16 18 20 22 24 25 27
15 16 17 16 13 11 11 12 10 11 12 10 8 4 5 6 6 6 6 6 6 6 6 6 6 6 6 6 7 9 10 11 11 11 11 11 12 14 16 16 15 16 18 19 22 25 26 28 29
16 18 17 18 11 11 10 13 13 13 13 12 10 9 10 10 10 9 8 8 7 7 6 6 7 7 7 7 8 10 11 11 10 11 11 13 14 16 16 15 15 17 20 22 26 28 29 30 31
20 23 19 17 13 13 12 12 14 14 13 12 12 12 12 12 12 11 10 9 8 7 6 6 7 7 8 8 9 10 11 10 10 11 13 14 16 17 16 16 18 20 22 25 28 29 29 29 28
23 26 21 17 15 15 16 15 15 15 15 12 14 15 13 11 11 12 11 11 9 8 7 8 8 9 9 9 10 11 11 10 10 12 14 16 18 17 16 18 21 23 25 28 29 30 28 28 26
26 25 22 21 21 21 19 18 18 19 14 14 16 16 15 15 14 15 14 12 10 10 9 9 10 10 11 11 10 10 11 9 11 13 15 17 18 17 17 20 22 24 27 30 30 30 28 28 28
26 25 24 23 23 23 24 22 23 20 16 19 17 17 17 16 15 16 15 13 11 11 10 9 10 12 12 12 10 10 10 10 12 13 16 18 17 18 19 21 23 26 29 30 29 28 28 30 27
24 25 27 26 24 27 25 24 26 18 15 16 16 15 16 15 17 17 14 13 13 11 10 9 9 11 11 10 9 9 9 10 12 13 16 17 17 19 20 21 24 28 30 29 26 27 26 23 20
28 28 25 24 24 26 27 30 28 20 19 18 17 18 18 18 17 14 17 14 13 12 9 9 10 10 8 9 9 8 9 11 12 14 16 17 18 18 19 21 24 28 28 25 26 25 24 21 18
20 24 26 28 25 26 26 33 20 18 16 17 18 20 18 16 15 17 15 13 13 11 10 9 10 9 8 7 8 7 9 10 11 14 15 16 17 18 19 21 24 26 23 23 24 22 22 17 15
22 18 20 22 26 25 24 28 20 22 22 24 21 19 21 19 16 17 15 12 12 12 12 11 9 8 7 7 7 7 9 10 11 13 15 16 16 17 17 20 23 23 20 22 21 22 20 17 16
24 25 26 27 17 16 23 31 27 23 23 19 22 20 20 20 18 19 17 12 12 13 13 12 10 8 7 6 7 7 8 9 11 13 13 15 16 16 16 19 21 20 18 20 19 20 20 18 18
26 21 22 23 20 23 27 31 25 23 30 26 22 24 22 20 21 20 20 17 15 14 14 12 11 9 7 7 7 7 7 9 10 11 12 13 14 15 15 17 20 17 16 18 18 20 20 18 15
28 27 25 21 17 20 23 33 33 30 30 27 26 26 24 24 23 21 22 21 19 17 16 13 12 10 9 8 7 7 6 8 9 10 11 12 13 14 14 16 18 15 13 15 16 18 17 15 13
30 31 27 24 21 24 30 37 34 31 31 32 31 29 28 27 25 23 22 22 23 20 18 15 14 11 10 9 7 6 6 7 8 9 10 11 12 13 13 14 17 14 12 12 13 15 16 13 11
30 29 24 24 22 11 11 13 23 20 22 29 30 29 27 26 26 24 23 24 24 22 20 17 15 14 12 10 7 6 5 6 7 7 9 10 10 12 11 13 15 13 11 9 10 13 14 12 10
25 24 19 20 21 19 19 13 20 25 30 16 21 24 25 25 25 24 22 22 24 23 20 18 17 16 14 11 8 6 6 6 6 6 8 9 9 11 11 12 14 12 10 7 6 9 11 10 9
22 15 11 13 12 8 18 17 18 24 26 18 22 23 22 24 24 23 23 23 22 21 21 19 18 18 15 12 9 7 6 5 5 5 6 8 7 9 9 10 12 12 8 6 5 4 7 8 8
29 22 4 3 4 7 12 15 28 11 15 21 24 24 24 23 23 24 23 20 19 19 20 20 19 19 16 13 10 8 6 5 4 4 5 7 7 7 8 9 11 11 8 6 5 3 5 8 10
36 30 11 7 6 3 13 14 20 10 21 23 20 22 27 25 26 25 23 21 21 21 21 21 21 20 17 15 11 9 7 5 4 4 5 6 7 7 7 7 10 10 9 6 5 2 5 11 12
31 33 28 8 4 2 9 20 31 30 23 21 21 23 24 29 27 25 24 23 22 22 22 23 23 22 19 16 13 11 8 6 4 4 5 6 6 6 7 7 8 10 10 6 5 2 7 12 16
33 33 17 18 6 8 10 10 17 6 11 28 30 26 26 26 28 27 25 23 23 23 24 25 25 24 21 18 15 12 10 7 5 5 5 6 6 6 6 6 7 9 10 8 5 4 8 15 17
35 30 21 18 21 5 8 16 23 20 18 12 24 26 26 24 26 25 22 21 22 23 23 24 24 23 20 20 17 14 11 8 6 6 6 6 6 6 6 5 5 7 9 8 3 2 9 15 15
39 38 46 25 21 24 18 25 16 10 23 25 24 23 24 26 24 24 23 22 22 21 21 21 23 23 23 22 19 16 13 10 8 7 7 7 6 7 7 5 4 5 7 7 3 3 10 11 12

GFSSGP_700_spd_345.txt.gz
Wind_Speed
9 7 5 3 2 6 9 5 6 5 3 9 8 4 5 7 4 4 6 6 6 6 6 6 6 6 5 4 5 6 7 7 7 7 7 7 9 10 10 11 12 13 13 14 15 15 15 15 15
9 6 4 3 5 10 5 8 7 6 9 6 6 5 3 6 7 8 6 5 3 7 6 6 6 5 4 4 5 6 7 7 7 7 8 8 9 10 10 11 12 13 13 15 16 16 17 17 18
9 7 4 4 8 9 2 6 7 10 8 6 3 5 7 9 6 5 4 4 5 6 6 6 6 5 5 5 6 7 7 7 8 8 9 9 9 10 10 11 11 12 13 14 16 17 19 20 20
9 8 7 8 9 9 6 4 8 9 8 6 6 2 6 6 5 4 4 3 5 6 6 6 7 7 6 6 7 7 7 8 9 9 10 11 11 10 11 12 13 13 15 16 17 19 20 21 22
10 10 9 9 12 11 8 9 12 7 6 6 5 5 8 6 6 5 4 4 6 6 6 6 6 6 6 6 7 7 8 9 10 11 11 12 12 11 12 13 14 15 17 18 19 20 20 21 22
10 11 9 12 11 10 12 13 13 11 8 9 7 7 10 8 6 6 5 6 6 6 6 5 6 6 6 7 7 8 9 10 11 11 11 12 13 13 14 15 17 18 18 18 19 20 22 23 24
11 10 13 13 10 9 11 15 15 10 10 10 9 4 9 8 7 6 6 6 6 6 5 5 6 6 7 7 8 9 10 11 11 10 11 12 13 14 16 18 19 18 18 20 22 23 25 27 28
14 11 12 10 9 10 12 11 15 13 9 13 9 4 10 9 7 8 7 8 7 7 6 5 6 7 7 7 8 10 10 11 11 11 11 12 14 15 18 18 17 18 19 22 24 26 28 30 32
16 13 13 14 10 7 11 11 14 13 14 13 12 13 11 10 11 10 10 10 8 8 7 6 6 8 9 8 9 10 11 11 10 11 12 14 15 17 18 18 18 20 21 24 26 28 31 32 33
19 16 13 15 13 13 13 11 16 14 15 14 14 13 14 14 13 13 13 12 10 9 8 7 7 9 10 10 10 11 11 11 10 11 13 15 17 18 18 18 19 22 23 25 28 30 30 29 28
24 26 16 21 17 18 17 15 16 14 16 13 13 17 15 15 13 13 14 14 13 9 8 8 9 9 10 10 10 10 11 11 10 12 14 16 18 19 18 18 21 23 24 27 29 27 25 27 28
27 26 27 24 22 22 19 19 17 18 14 16 16 18 16 17 17 17 16 15 13 11 9 9 10 10 10 10 9 10 11 10 11 13 15 17 19 18 18 20 21 23 26 28 26 26 27 27 27
26 27 28 25 25 26 26 24 25 24 17 18 18 18 20 19 19 18 18 16 12 11 11 10 11 11 11 10 8 9 10 9 12 14 16 18 19 19 19 20 22 24 27 25 25 25 26 27 26
25 25 30 29 26 28 28 25 29 22 18 18 20 18 19 19 19 21 18 15 14 12 11 11 11 11 10 9 7 8 8 10 12 13 16 17 18 18 19 20 22 26 25 23 24 24 25 24 22
26 29 28 28 24 29 29 32 33 22 23 22 21 20 21 19 19 17 17 17 16 14 11 12 11 11 10 9 7 7 8 10 12 13 16 17 17 18 19 20 23 25 22 23 23 25 24 21 19
20 22 20 20 25 29 26 34 20 20 16 20 22 23 22 21 21 20 20 18 15 13 11 12 11 11 10 9 7 7 8 9 11 13 15 16 17 17 19 20 23 23 21 21 22 23 20 19 17
19 15 14 16 22 25 25 31 26 25 26 25 23 21 20 23 21 20 19 17 16 14 14 12 12 11 11 9 7 6 8 9 10 12 14 15 16 17 18 20 23 20 19 19 21 20 21 20 15
19 19 19 19 15 17 21 30 28 27 25 17 22 23 25 23 23 21 19 19 14 13 14 14 12 12 12 10 8 6 8 8 9 12 13 14 15 16 18 19 22 18 17 18 19 18 21 19 17
18 19 17 14 22 24 26 32 32 26 28 33 28 23 21 23 24 23 22 21 16 15 14 14 13 14 12 11 9 6 7 8 8 10 12 13 13 15 17 18 19 17 15 16 16 16 19 18 14
28 23 20 19 26 28 31 36 36 33 32 31 26 28 25 25 25 23 23 24 23 19 18 17 16 15 14 12 9 7 7 8 8 9 11 12 12 14 15 16 18 15 13 13 14 14 17 18 14
30 29 22 21 21 25 30 41 38 34 34 32 33 28 28 29 26 26 23 23 25 25 21 19 18 18 16 13 10 8 8 8 7 7 9 11 11 13 14 15 17 13 11 11 11 12 15 16 14
25 26 25 22 16 8 9 13 23 17 23 27 30 31 30 30 29 29 28 27 27 28 26 24 21 19 17 15 12 10 8 8 7 6 8 10 10 12 13 14 16 12 9 8 7 10 12 13 13
21 20 15 16 19 17 19 13 15 17 27 28 19 23 28 30 30 32 30 29 29 30 28 26 23 21 19 17 13 11 9 8 6 6 7 8 9 10 13 13 14 12 9 6 5 6 9 11 12
23 17 9 8 6 8 20 18 23 24 25 23 21 25 20 27 30 31 30 30 30 29 29 27 24 22 21 18 15 12 10 9 7 6 6 7 8 9 11 12 13 12 9 6 4 2 5 8 11
25 15 3 3 4 7 6 15 29 12 13 10 15 22 25 27 25 28 28 27 27 27 26 25 24 23 22 20 16 13 11 10 7 6 5 6 6 7 9 11 11 13 9 6 3 3 4 5 8
37 29 12 7 6 4 11 14 18 17 16 24 28 25 25 29 25 25 25 25 24 24 24 24 24 24 23 21 18 15 13 11 8 6 5 5 5 6 7 9 10 11 9 6 4 3 6 8 9
26 29 28 11 9 4 12 25 31 26 25 27 25 22 22 23 28 26 26 26 25 25 25 25 25 25 25 22 19 16 14 12 9 7 6 5 4 5 6 8 9 11 9 7 5 1 8 12 11
31 28 14 15 7 11 19 29 25 13 7 14 28 29 28 25 27 29 28 27 27 26 26 27 26 26 26 24 21 18 15 13 10 8 7 6 5 5 4 6 8 9 10 8 5 4 7 14 15
31 29 23 18 25 8 7 17 26 25 21 29 20 18 28 27 26 26 27 27 27 26 26 26 26 27 26 25 22 20 17 14 11 9 8 7 6 6 5 5 6 8 10 8 4 3 8 14 15
36 38 43 22 12 27 20 31 18 10 13 18 22 21 20 21 24 24 26 26 26 26 26 25 26 26 26 25 24 21 18 15 12 10 8 7 7 7 7 5 5 6 8 7 2 0 8 14 14